Flag for United Kingdom Weather past 2 weeks in Preston, England, United Kingdom

50 °F

Scattered clouds.

Feels Like: 44 °F
Forecast: 46 / 50 °F
Wind: 16 mph from Northwest

Location: Blackpool Airport

Current Time: Nov 25, 2015 at 8:56:19 AM

Latest Report: Nov 25, 2015 at 8:20 AM

Visibility: 6 mi

Pressure: 29.86 "Hg

Humidity: 82%

Dew point: 45 °F

Location of PrestonLocation

Historic Weather in Preston — Graph


Preston temperature yesterday

Maximum temperature yesterday: 50 °F (at 10:20 AM)
Minimum temperature yesterday: 46 °F (at 7:20 PM)
Average temperature yesterday: 49 °F

Past Weeks' High & Low Weather Summary

High61 °F (Nov 10, 12:20 PM)100% (Nov 10, 8:20 AM)30.21 "Hg (Nov 10, 8:20 AM)
Low32 °F (Nov 23, 6:20 AM)48% (Nov 21, 8:20 AM)29.18 "Hg (Nov 17, 5:20 PM)
Average50 °F82%29.81 "Hg
* Reported Nov 10 7:20 AM — Nov 25 7:50 AM, Preston, Weather by CustomWeather, © 2015

Note: Actual official high and low records may vary slightly from our data, if they occured in-between our weather recording intervals... More about our weather records


Preston weather history for previous 24 hours

Time TempWeatherWind HumidityBarometerVisibility
7:50 AM
Wed, Nov 25
50 °FPassing clouds.15 mph82%29.83 "HgN/A
8:50 PM
Tue, Nov 24
46 °FPartly cloudy.17 mph87%29.77 "HgN/A
8:20 PM46 °FPartly cloudy.15 mph93%29.77 "HgN/A
7:50 PM48 °FPartly cloudy.15 mph87%29.77 "HgN/A
7:20 PM46 °FPassing clouds.16 mph87%29.77 "HgN/A
6:50 PM50 °FPartly cloudy.20 mph76%29.74 "HgN/A
6:20 PM50 °FPassing clouds.20 mph76%29.74 "HgN/A
5:50 PM50 °FPassing clouds.22 mph76%29.74 "HgN/A
5:20 PM50 °FPassing clouds.21 mph76%29.74 "HgN/A
4:50 PM50 °FPartly cloudy.18 mph76%29.74 "HgN/A
4:20 PM50 °FPassing clouds.17 mph76%29.74 "HgN/A
3:50 PM50 °FBroken clouds.20 mph76%29.74 "HgN/A
3:20 PM50 °FScattered showers. Broken clouds.21 mph76%29.71 "HgN/A
2:50 PM50 °FScattered showers. Passing clouds.20 mph76%29.71 "HgN/A
2:20 PM50 °FScattered showers. Passing clouds.22 mph76%29.71 "HgN/A
1:50 PM48 °FScattered showers. Scattered clouds.16 mph87%29.74 "HgN/A
1:20 PM50 °FScattered showers. Scattered clouds.21 mph82%29.74 "HgN/A
12:50 PM48 °FScattered showers. Scattered clouds.21 mph87%29.74 "HgN/A
12:20 PM48 °FScattered clouds.24 mph87%29.74 "HgN/A
11:20 AM48 °FRain showers. Broken clouds.25 mph87%29.77 "Hg5 mi
10:50 AM48 °FSprinkles. Partly sunny.22 mph87%29.77 "HgN/A
10:20 AM50 °FSprinkles. Scattered clouds.24 mph82%29.77 "Hg6 mi
9:50 AM48 °FSprinkles. Scattered clouds.23 mph87%29.77 "HgN/A
9:20 AM48 °FSprinkles. Scattered clouds.24 mph87%29.80 "Hg6 mi
8:50 AM48 °FSprinkles. Scattered clouds.24 mph87%29.80 "Hg6 mi
8:20 AM48 °FBroken clouds.24 mph87%29.80 "HgN/A
Weather by CustomWeather, © 2015

See weather overviewHow to use our weather pages